Date,TemperatureHighF,TemperatureAvgF,TemperatureLowF,DewpointHighF,DewpointAvgF,DewpointLowF,HumidityHigh,HumidityAvg,HumidityLow,PressureMaxIn,PressureMinIn,WindSpeedMaxMPH,WindSpeedAvgMPH,GustSpeedMaxMPH,PrecipitationSumIn
2013-5-1,49.3,45.9,42.3,48.1,45.1,42.3,100,97,89,30.31,30.19,18,10,18,0.00
2013-5-2,49.1,47.8,46.9,48.0,47.6,46.9,100,99,96,30.20,30.14,18,7,18,0.00
2013-5-7,67.1,57.9,53.1,59.4,55.9,53.1,100,94,70,30.11,30.04,28,8,28,0.00
2013-5-8,70.9,62.2,52.5,60.7,56.1,52.5,100,82,61,30.10,30.02,17,5,17,0.00
2013-5-9,70.7,59.7,49.6,59.0,53.9,49.6,100,83,58,30.10,30.02,18,5,18,0.00
2013-5-10,59.7,54.7,50.9,53.9,50.1,45.0,100,85,65,30.12,29.99,16,6,16,0.00
2013-5-11,61.2,50.7,46.4,51.2,47.3,43.9,100,89,65,30.13,30.04,10,4,10,0.00
2013-5-12,56.7,47.1,38.7,47.9,42.8,36.6,100,86,58,30.15,29.99,32,10,32,0.00
2013-5-13,46.2,40.3,35.6,43.7,39.5,35.6,100,97,83,30.16,30.07,20,10,20,0.00
2013-5-14,60.3,51.8,45.7,48.7,46.0,44.3,100,82,58,30.06,29.90,21,9,21,0.00
2013-5-15,70.7,58.8,46.6,53.2,48.2,43.5,90,69,45,29.90,29.70,31,14,31,0.00
2013-5-16,58.3,55.0,51.8,52.0,50.6,49.5,93,85,76,29.74,29.66,20,11,20,0.00
2013-5-17,73.8,61.8,52.7,58.2,54.0,50.3,94,77,54,29.71,29.59,24,11,24,0.00
2013-5-18,61.5,52.9,47.1,54.2,49.3,24.6,100,89,41,29.96,29.71,20,11,20,0.00
2013-5-19,71.6,56.9,46.9,54.8,50.0,3.9,100,81,16,29.94,29.55,26,15,26,0.01
2013-5-20,62.6,52.1,38.7,47.3,44.7,-3.8,100,78,16,30.03,29.67,23,11,23,0.00
2013-5-21,55.6,44.6,41.4,45.3,41.8,39.7,95,90,69,30.02,29.77,17,7,18,0.00
2013-5-26,42.8,41.3,39.9,42.8,39.8,-1.4,100,97,16,29.78,29.76,20,12,20,0.24
2013-5-27,46.2,43.9,36.5,46.2,43.8,30.6,100,100,63,29.92,29.75,16,9,16,0.00
2013-5-28,64.8,51.1,44.2,49.1,45.8,44.2,100,85,51,29.91,29.66,17,6,17,0.00
2013-5-29,56.8,50.0,38.7,53.3,48.0,35.0,100,93,59,29.80,29.62,38,8,38,3.80
2013-5-30,48.4,45.1,34.7,47.8,44.8,34.7,100,99,87,29.82,29.61,35,7,35,0.00
2013-5-31,51.1,49.0,47.7,51.1,49.0,47.7,100,100,100,29.61,29.53,8,4,8,0.00